| Date | Time | Temp. (oF) | Dew Point (oF) | Rel. Hum. (%) | Press. (in.) | Wind Dir. | Wind Speed (mph) | Hourly Rainfall (in.) |
|
|---|---|---|---|---|---|---|---|---|---|
| 1 | 01/13 | 00:00 | 43 | 42 | 100 | 30.16 | NE | 4 | 0.00 |
| 2 | 01/12 | 23:00 | 43 | 42 | 100 | 30.17 | E | 2 | 0.00 |
| 3 | 01/12 | 22:00 | 43 | 42 | 100 | 30.18 | NE | 4 | 0.00 |
| 4 | 01/12 | 21:00 | 43 | 42 | 100 | 30.18 | NE | 1 | 0.00 |
| 5 | 01/12 | 20:00 | 43 | 42 | 100 | 30.19 | NE | 3 | 0.00 |
| 6 | 01/12 | 19:00 | 44 | 44 | 100 | 30.18 | E | 2 | 0.00 |
| 7 | 01/12 | 18:00 | 44 | 44 | 100 | 30.17 | S | 0 | 0.00 |
| 8 | 01/12 | 17:00 | 44 | 44 | 100 | 30.14 | SSE | 0 | 0.00 |
| 9 | 01/12 | 16:00 | 44 | 44 | 100 | 30.14 | ENE | 3 | 0.00 |
| 10 | 01/12 | 15:00 | 43 | 42 | 100 | 30.13 | ESE | 0 | 0.00 |
| 11 | 01/12 | 14:00 | 42 | 41 | 100 | 30.12 | NE | 4 | 0.00 |
| 12 | 01/12 | 13:00 | 41 | 41 | 100 | 30.14 | NNE | 4 | 0.00 |
| 13 | 01/12 | 12:00 | 40 | 40 | 100 | 30.16 | E | 3 | 0.00 |
| 14 | 01/12 | 11:00 | 39 | 39 | 100 | 30.17 | ENE | 5 | 0.00 |
| 15 | 01/12 | 10:00 | 38 | 37 | 100 | 30.19 | NE | 4 | 0.00 |
| 16 | 01/12 | 09:00 | 38 | 37 | 100 | 30.17 | NE | 7 | 0.00 |
| 17 | 01/12 | 08:00 | 38 | 37 | 100 | 30.15 | E | 3 | 0.00 |
| 18 | 01/12 | 07:00 | 38 | 37 | 100 | 30.16 | E | 3 | 0.00 |
| 19 | 01/12 | 06:00 | 38 | 37 | 100 | 30.14 | SSE | 4 | 0.00 |
| 20 | 01/12 | 05:00 | 38 | 37 | 100 | 30.13 | NE | 4 | 0.00 |
| 21 | 01/12 | 04:00 | 38 | 37 | 100 | 30.14 | NE | 10 | 0.00 |
| 22 | 01/12 | 03:00 | 38 | 37 | 100 | 30.14 | NE | 7 | 0.00 |
| 23 | miss | miss | miss | miss | miss | miss | miss | miss | |
| 24 | 01/12 | 02:48 | 38 | 37 | 100 | 30.14 | NNE | 8 | 0.01 |
| 25 | miss | miss | miss | miss | miss | miss | miss | miss | |
| 26 | 01/12 | 02:47 | 38 | 37 | 100 | 30.14 | ENE | 5 | 0.01 |
| 27 | miss | miss | miss | miss | miss | miss | miss | miss | |
| 28 | 01/12 | 02:47 | 38 | 37 | 100 | 30.14 | ENE | 5 | 0.01 |
| 29 | miss | miss | miss | miss | miss | miss | miss | miss | |
| 30 | 01/12 | 02:47 | 38 | 37 | 100 | 30.14 | ENE | 5 | 0.01 |
| 31 | miss | miss | miss | miss | miss | miss | miss | miss | |
| 32 | 01/12 | 02:47 | 38 | 37 | 100 | 30.14 | ENE | 5 | 0.01 |
| 33 | miss | miss | miss | miss | miss | miss | miss | miss | |
| 34 | 01/12 | 02:47 | 38 | 37 | 100 | 30.14 | ENE | 5 | 0.01 |
| 35 | miss | miss | miss | miss | miss | miss | miss | miss | |
| 36 | 01/12 | 02:47 | 38 | 37 | 100 | 30.14 | ENE | 5 | 0.01 |
| 37 | miss | miss | miss | miss | miss | miss | miss | miss | |
| 38 | 01/12 | 02:47 | 38 | 37 | 100 | 30.14 | ENE | 5 | 0.01 |
| 39 | miss | miss | miss | miss | miss | miss | miss | miss | |
| 40 | 01/12 | 02:47 | 38 | 37 | 100 | 30.14 | ENE | 5 | 0.01 |
| 41 | miss | miss | miss | miss | miss | miss | miss | miss | |
| 42 | 01/12 | 02:47 | 38 | 37 | 100 | 30.14 | ENE | 5 | 0.01 |
| 43 | miss | miss | miss | miss | miss | miss | miss | miss | |
| 44 | 01/12 | 02:47 | 38 | 37 | 100 | 30.14 | ENE | 5 | 0.01 |
| 45 | miss | miss | miss | miss | miss | miss | miss | miss | |
| 46 | 01/12 | 02:47 | 38 | 37 | 100 | 30.14 | ENE | 5 | 0.01 |
| 47 | 01/12 | 02:00 | 38 | 37 | 100 | 30.14 | ENE | 4 | 0.00 |
| 48 | 01/12 | 01:00 | 37 | 36 | 100 | 30.14 | NNE | 4 | 0.00 |
| 49 | 01/12 | 00:00 | 37 | 36 | 100 | 30.14 | NNE | 3 | -0.01 |
| 50 | 01/11 | 23:00 | 36 | 36 | 100 | 30.16 | NE | 6 | 0.01 |
| 51 | 01/11 | 22:00 | 36 | 36 | 100 | 30.18 | ENE | 1 | 0.05 |
| 52 | 01/11 | 21:00 | 36 | 36 | 100 | 30.19 | NE | 3 | 0.02 |
| 53 | 01/11 | 20:00 | 36 | 36 | 100 | 30.19 | E | 6 | 0.05 |
| 54 | 01/11 | 19:00 | 35 | 35 | 100 | 30.19 | E | 5 | 0.05 |
| 55 | 01/11 | 18:00 | 35 | 34 | 99 | 30.17 | E | 8 | 0.00 |
| 56 | 01/11 | 17:00 | 36 | 35 | 99 | 30.18 | NE | 4 | 0.00 |
| 57 | 01/11 | 16:00 | 35 | 35 | 100 | 30.17 | SE | 7 | 0.01 |
| 58 | 01/11 | 15:00 | 35 | 34 | 99 | 30.17 | E | 4 | 0.01 |
| 59 | 01/11 | 14:00 | 36 | 34 | 95 | 30.19 | ESE | 4 | 0.02 |
| 60 | 01/11 | 13:00 | 37 | 32 | 85 | 30.21 | E | 6 | 0.00 |
| 61 | 01/11 | 12:00 | 38 | 32 | 80 | 30.26 | E | 5 | 0.00 |
| 62 | 01/11 | 11:00 | 38 | 32 | 81 | 30.30 | NE | 3 | 0.00 |
| 63 | 01/11 | 10:00 | 37 | 32 | 83 | 30.30 | SSE | 3 | 0.00 |
| 64 | 01/11 | 09:00 | 35 | 31 | 88 | 30.28 | E | 4 | 0.00 |
| 65 | 01/11 | 08:00 | 34 | 31 | 91 | 30.28 | E | 1 | 0.00 |
| 66 | 01/11 | 07:00 | 33 | 31 | 93 | 30.28 | E | 3 | 0.00 |
| 67 | 01/11 | 06:00 | 33 | 30 | 92 | 30.26 | ENE | 3 | 0.00 |
| 68 | 01/11 | 05:00 | 35 | 32 | 89 | 30.28 | NW | 0 | 0.00 |
| 69 | 01/11 | 04:00 | 35 | 32 | 89 | 30.27 | WSW | 0 | 0.00 |
| 70 | 01/11 | 03:00 | 36 | 32 | 86 | 30.26 | NW | 2 | 0.00 |
| 71 | 01/11 | 02:00 | 37 | 32 | 83 | 30.25 | WNW | 0 | 0.00 |
| 72 | 01/11 | 01:00 | 37 | 32 | 82 | 30.25 | W | 1 | 0.00 |
| 73 | 01/11 | 00:00 | 37 | 32 | 84 | 30.25 | SW | 2 | -0.22 |